When you browse on this site, cookies collect data to enhance your experience and personalize the content and advertising you see.
Visit our Privacy Policy to learn more. By continuing to use the site, you agree to this use of cookies and data.
  • In Czech Republic
  • List of Countries
  • For 7 days
  • Water Temperature
  • Weather Map
  • Weather Widgets
  • user-avatar
    Login

    Hourly Weather Duesseldorf

    Today, 19 February, Wednesday

    Time Temperature Precipitation Wind Pressure Humidity
    00:00 +5°C° 0 mm 6 mps 758 mmHg 79%
    01:00 +5°C° 0.7 mm 6 mps 757 mmHg 81%
    02:00 +4°C° 0.7 mm 7 mps 756 mmHg 83%
    03:00 +4°C° 0.7 mm 7 mps 756 mmHg 85%
    04:00 +4°C° 0.9 mm 7 mps 757 mmHg 82%
    05:00 +4°C° 0.9 mm 6 mps 757 mmHg 80%
    06:00 +3°C° 0 mm 5 mps 758 mmHg 77%
    07:00 +3°C° 0.1 mm 5 mps 759 mmHg 74%
    08:00 +3°C° 0.1 mm 6 mps 760 mmHg 72%
    09:00 +4°C° 0.1 mm 6 mps 760 mmHg 69%
    10:00 +4°C° 0 mm 6 mps 761 mmHg 66%
    11:00 +4°C° 0 mm 6 mps 761 mmHg 64%
    12:00 +5°C° 0 mm 6 mps 761 mmHg 62%
    13:00 +5°C° 0 mm 6 mps 762 mmHg 63%
    14:00 +5°C° 0 mm 6 mps 762 mmHg 63%
    15:00 +6°C° 0 mm 5 mps 762 mmHg 64%
    16:00 +5°C° 0 mm 4 mps 762 mmHg 67%
    17:00 +4°C° 0 mm 3 mps 762 mmHg 70%
    18:00 +4°C° 0 mm 3 mps 762 mmHg 73%
    19:00 +4°C° 0 mm 3 mps 762 mmHg 74%
    20:00 +4°C° 0 mm 3 mps 762 mmHg 76%
    21:00 +4°C° 0 mm 3 mps 762 mmHg 77%
    22:00 +5°C° 0.2 mm 4 mps 762 mmHg 80%
    23:00 +5°C° 0.2 mm 4 mps 761 mmHg 83%

    Tomorrow, 20 February, Thursday

    Time Temperature Precipitation Wind Pressure Humidity
    00:00 +5°C° 0.2 mm 4 mps 761 mmHg 86%
    01:00 +5°C° 0.3 mm 4 mps 761 mmHg 86%
    02:00 +6°C° 0.3 mm 4 mps 760 mmHg 86%
    03:00 +6°C° 0.3 mm 4 mps 760 mmHg 86%
    04:00 +6°C° 0 mm 4 mps 760 mmHg 86%
    05:00 +6°C° 0 mm 4 mps 759 mmHg 86%
    06:00 +6°C° 0 mm 4 mps 759 mmHg 86%
    07:00 +6°C° 0 mm 4 mps 759 mmHg 83%
    08:00 +7°C° 0 mm 5 mps 759 mmHg 79%
    09:00 +7°C° 0 mm 5 mps 759 mmHg 76%
    10:00 +7°C° 0 mm 5 mps 759 mmHg 73%
    11:00 +8°C° 0 mm 6 mps 759 mmHg 70%
    12:00 +8°C° 0 mm 6 mps 758 mmHg 66%
    13:00 +8°C° 0 mm 6 mps 758 mmHg 67%
    14:00 +8°C° 0 mm 6 mps 757 mmHg 68%
    15:00 +8°C° 0 mm 6 mps 756 mmHg 69%
    16:00 +8°C° 0.1 mm 7 mps 756 mmHg 71%
    17:00 +8°C° 0.1 mm 7 mps 756 mmHg 73%
    18:00 +7°C° 0.1 mm 8 mps 755 mmHg 75%
    19:00 +6°C° 1 mm 7 mps 756 mmHg 77%
    20:00 +5°C° 1 mm 7 mps 757 mmHg 79%
    21:00 +4°C° 1 mm 7 mps 758 mmHg 80%
    22:00 +3°C° 0.1 mm 7 mps 760 mmHg 75%
    23:00 +3°C° 0.1 mm 6 mps 761 mmHg 70%

    Day after tomorrow, 21 February, Friday

    Time Temperature Precipitation Wind Pressure Humidity
    00:00 +2°C° 0.1 mm 5 mps 762 mmHg 65%
    01:00 +2°C° 0 mm 5 mps 763 mmHg 67%
    02:00 +2°C° 0 mm 5 mps 763 mmHg 68%
    03:00 +1°C° 0 mm 5 mps 764 mmHg 70%
    04:00 +1°C° 0 mm 5 mps 765 mmHg 71%
    05:00 +1°C° 0 mm 5 mps 765 mmHg 73%
    06:00 +1°C° 0 mm 5 mps 766 mmHg 75%
    13:00 +5°C° 0 mm 6 mps 767 mmHg 61%
    14:00 +6°C° 0 mm 5 mps 767 mmHg 62%
    15:00 +7°C° 0 mm 5 mps 766 mmHg 63%
    16:00 +6°C° 0 mm 5 mps 766 mmHg 65%
    17:00 +6°C° 0 mm 5 mps 766 mmHg 68%
    18:00 +6°C° 0 mm 5 mps 767 mmHg 70%
    19:00 +5°C° 0 mm 5 mps 766 mmHg 72%
    20:00 +5°C° 0 mm 5 mps 766 mmHg 73%
    21:00 +5°C° 0 mm 5 mps 766 mmHg 75%
    22:00 +3°C° 0 mm 5 mps 766 mmHg 75%
    23:00 +3°C° 0 mm 5 mps 766 mmHg 75%

    22 February, Saturday

    Time Temperature Precipitation Wind Pressure Humidity
    00:00 +3°C° 0 mm 5 mps 765 mmHg 75%
    01:00 +3°C° 0 mm 5 mps 765 mmHg 75%
    02:00 +3°C° 0 mm 5 mps 765 mmHg 74%
    03:00 +3°C° 0 mm 5 mps 764 mmHg 74%
    04:00 +3°C° 0 mm 5 mps 764 mmHg 73%
    05:00 +3°C° 0 mm 5 mps 764 mmHg 71%
    06:00 +3°C° 0 mm 6 mps 764 mmHg 69%
    07:00 +4°C° 0 mm 6 mps 763 mmHg 65%
    08:00 +4°C° 0 mm 6 mps 763 mmHg 62%
    09:00 +5°C° 0 mm 7 mps 763 mmHg 58%
    10:00 +6°C° 0 mm 7 mps 763 mmHg 58%
    11:00 +6°C° 0 mm 7 mps 763 mmHg 59%
    12:00 +7°C° 0 mm 8 mps 763 mmHg 60%
    13:00 +8°C° 0 mm 7 mps 763 mmHg 64%
    14:00 +8°C° 0 mm 7 mps 763 mmHg 67%
    15:00 +9°C° 0 mm 7 mps 762 mmHg 71%
    16:00 +9°C° 0 mm 7 mps 762 mmHg 73%
    17:00 +9°C° 0 mm 7 mps 763 mmHg 75%
    18:00 +9°C° 0 mm 7 mps 763 mmHg 77%
    19:00 +9°C° 0 mm 7 mps 763 mmHg 78%
    20:00 +9°C° 0 mm 7 mps 763 mmHg 80%
    21:00 +9°C° 0 mm 7 mps 763 mmHg 82%
    22:00 +9°C° 0.1 mm 7 mps 763 mmHg 81%
    23:00 +9°C° 0.1 mm 7 mps 763 mmHg 80%

    23 February, Sunday

    Time Temperature Precipitation Wind Pressure Humidity
    00:00 +9°C° 0.1 mm 6 mps 764 mmHg 80%
    01:00 +9°C° 0.1 mm 6 mps 763 mmHg 79%
    02:00 +8°C° 0.1 mm 6 mps 763 mmHg 79%
    03:00 +8°C° 0.1 mm 5 mps 763 mmHg 78%
    04:00 +8°C° 0.3 mm 5 mps 763 mmHg 81%
    05:00 +7°C° 0.3 mm 5 mps 763 mmHg 83%
    06:00 +7°C° 0.3 mm 5 mps 763 mmHg 85%
    07:00 +7°C° 0.8 mm 5 mps 762 mmHg 85%
    08:00 +7°C° 0.8 mm 5 mps 761 mmHg 86%
    09:00 +7°C° 0.8 mm 4 mps 760 mmHg 87%
    10:00 +8°C° 0.5 mm 7 mps 759 mmHg 86%
    11:00 +10°C° 0.5 mm 9 mps 757 mmHg 84%
    12:00 +11°C° 0.5 mm 11 mps 756 mmHg 83%
    13:00 +11°C° 1.5 mm 11 mps 755 mmHg 83%
    14:00 +11°C° 1.5 mm 11 mps 755 mmHg 84%
    15:00 +11°C° 1.5 mm 11 mps 754 mmHg 85%
    16:00 +11°C° 1.1 mm 11 mps 755 mmHg 81%
    17:00 +9°C° 1.1 mm 10 mps 756 mmHg 76%
    18:00 +9°C° 1.1 mm 10 mps 756 mmHg 71%
    19:00 +7°C° 0.1 mm 9 mps 758 mmHg 72%
    20:00 +5°C° 0.1 mm 9 mps 760 mmHg 73%
    21:00 +2°C° 0.1 mm 8 mps 762 mmHg 74%
    22:00 +3°C° 0 mm 7 mps 764 mmHg 73%
    23:00 +3°C° 0 mm 6 mps 765 mmHg 72%

    24 February, Monday

    Time Temperature Precipitation Wind Pressure Humidity
    00:00 +2°C° 0 mm 5 mps 767 mmHg 70%
    01:00 +3°C° 0 mm 4 mps 767 mmHg 72%
    02:00 +3°C° 0 mm 4 mps 768 mmHg 73%
    03:00 +3°C° 0 mm 3 mps 769 mmHg 74%
    04:00 +2°C° 0 mm 3 mps 769 mmHg 76%
    05:00 +2°C° 0 mm 3 mps 770 mmHg 78%
    06:00 +2°C° 0 mm 3 mps 770 mmHg 80%
    07:00 +2°C° 0 mm 3 mps 770 mmHg 78%
    08:00 +3°C° 0 mm 3 mps 770 mmHg 76%
    09:00 +5°C° 0 mm 2 mps 770 mmHg 73%
    10:00 +6°C° 0 mm 2 mps 769 mmHg 68%
    11:00 +7°C° 0 mm 3 mps 769 mmHg 63%
    12:00 +8°C° 0 mm 3 mps 768 mmHg 58%
    13:00 +8°C° 0 mm 3 mps 767 mmHg 56%
    14:00 +8°C° 0 mm 4 mps 766 mmHg 54%
    15:00 +8°C° 0 mm 4 mps 765 mmHg 52%
    16:00 +7°C° 0 mm 4 mps 764 mmHg 54%
    17:00 +7°C° 0 mm 4 mps 764 mmHg 55%
    18:00 +6°C° 0 mm 5 mps 763 mmHg 57%
    19:00 +6°C° 0 mm 5 mps 762 mmHg 57%
    20:00 +6°C° 0 mm 5 mps 761 mmHg 58%
    21:00 +7°C° 0 mm 6 mps 760 mmHg 58%
    22:00 +7°C° 0 mm 6 mps 759 mmHg 64%
    23:00 +8°C° 0 mm 6 mps 758 mmHg 70%
    Show more